STARLINK-34571, 64914

Orbit data source: Space-Track

STARLINK-34571, 64914 is a payload satellite owned by SpaceX/Seattle (US) in LEO that was launched on Sat, 26 Jul 2025 UTC via an FALCON 9 launch vehicle from the Air Force Eastern Test Range (AFETR). Payload-class satellites include a variety of spacecraft equipped with specific instruments for various scientific and technological missions. These include communications satellites like Starlink; space stations such as the ISS; scientific satellites like the Hubble; Earth observation satellites from companies like Planet Labs, Umbra, and HawkEye 360; GPS; miniature CubeSats for education and research; and military/defense satellites.

Loading next visibility...
Identifier
64914, 2025-157L
Orbit
LEO
Country
Flag of USUS
Related business
Manufacturer
SpaceX/Seattle
Mission
Operational Commercial Communications
Bus & Motor
STARLINK V2MO, Unknown motor
Mass
575 kg wet, ~530 kg dry
Launch date (UTC)
2025-07-26 (10 months ago)
Launch vehicle
FALCON 9
Launch site
Air Force Eastern Test Range (AFETR)
Object type
Payload
Rocket body
Debris
Shape & HBR
Box + 2 Pan, 17.7 m
Radar Cross Section
36.964 m², Large (>1 m²)

Expand to show TLE details & history
Last TLE update: 21 hours ago

TLE from 21 hours ago
0 STARLINK-34571
1 64914U 25157L   26144.99658385  .00011869  00000-0  41216-3 0  9996
2 64914  53.1573 351.4425 0000649  32.4086 327.6954 15.30204551 47751
Epoch: 2026-05-24T23:55Z
TLE epoch observation values (Epoch: 2026-05-24T23:55:04.844Z)
Latitude
-0.00007°
Longitude
110.08155°
Altitude
475.725 km
Speed
7.629 km/s
True Right ascension
23h 25m 46s
True Declination
0° 00' 00"
Sunlit
Object was in daylight at epoch
Visualization orbit readout
Latitude
Unknown
Longitude
Unknown
Altitude
Unknown
Speed
Unknown
Apparent Right ascension
Unknown
Apparent Declination
Unknown
Sunlit
N/A
Visualization observer readout
Local Sidereal Time
06:10:23
Azimuth
Unknown
Elevation
Unknown
Doppler factor
Unknown
Orbital elements
Apogee altitude
475.903 km
Perigee altitude
475.014 km
Semi-major axis
6,853.595 km
Eccentricity
0.00006
Inclination
53.1573°
RAAN
351.4425°
Arg. of periapsis
32.4086°
True anomaly
327.69143°
Mean anomaly
327.6954°
Eccentric anomaly
327.69341°
Mean motion
3.8253 °/min
Orbital period
94.11 mins
BSTAR
0.00041216
Loading maneuver chart data...
Computing Atmospheric mass density...
Loading historical data...
Loading historical data...
Loading historical data...
Loading historical data...
Loading historical data...
Loading historical data...
Loading historical data...

Documentation

Showing up to 5 results
|